When you browse on this site, cookies collect data to enhance your experience and personalize the content and advertising you see.
Visit our Privacy Policy to learn more. By continuing to use the site, you agree to this use of cookies and data.
  • în România
  • Lista ţărilor
  • Pe 7 zile
  • Temperatura apei
  • Hartă satelitară
  • Meteo pe hartă
  • Widget-uri
  • user-avatar
    Intrare

    Meteo pe oră la Shestakovo

    Astăzi, 25 Martie, Luni

    Timp Temperatura Precipitaţii Vânt Presiune Umiditate
    00:00 -2°C° 0 mm 2 m/s 741 mmHg 77%
    01:00 -2°C° 0 mm 2 m/s 741 mmHg 78%
    02:00 -3°C° 0 mm 2 m/s 740 mmHg 79%
    03:00 -3°C° 0 mm 2 m/s 740 mmHg 80%
    04:00 -3°C° 0 mm 2 m/s 740 mmHg 81%
    05:00 -4°C° 0 mm 2 m/s 740 mmHg 81%
    06:00 -2°C° 0 mm 2 m/s 739 mmHg 77%
    07:00 -1°C° 0 mm 2 m/s 739 mmHg 72%
    08:00 0°C° 0 mm 3 m/s 739 mmHg 66%
    09:00 +2°C° 0 mm 3 m/s 739 mmHg 59%
    10:00 +3°C° 0 mm 4 m/s 739 mmHg 52%
    11:00 +5°C° 0 mm 4 m/s 739 mmHg 45%
    12:00 +5°C° 0 mm 4 m/s 738 mmHg 44%
    13:00 +6°C° 0 mm 4 m/s 738 mmHg 44%
    14:00 +6°C° 0 mm 4 m/s 738 mmHg 43%
    15:00 +5°C° 0 mm 3 m/s 738 mmHg 49%
    16:00 +6°C° 0 mm 2 m/s 737 mmHg 54%
    17:00 +5°C° 0 mm 2 m/s 737 mmHg 60%
    18:00 +3°C° 0 mm 2 m/s 737 mmHg 65%
    19:00 +2°C° 0 mm 2 m/s 737 mmHg 70%
    20:00 +1°C° 0 mm 2 m/s 737 mmHg 74%
    21:00 -1°C° 0 mm 2 m/s 737 mmHg 76%
    22:00 -1°C° 0 mm 2 m/s 737 mmHg 77%
    23:00 -1°C° 0 mm 2 m/s 737 mmHg 78%

    Mâine, 26 Martie, Marţi

    Timp Temperatura Precipitaţii Vânt Presiune Umiditate
    00:00 -2°C° 0 mm 2 m/s 736 mmHg 80%
    01:00 -2°C° 0 mm 2 m/s 736 mmHg 82%
    02:00 -2°C° 0 mm 2 m/s 736 mmHg 84%
    03:00 -2°C° 0.1 mm 2 m/s 736 mmHg 86%
    04:00 -1°C° 0.1 mm 2 m/s 736 mmHg 88%
    05:00 -1°C° 0.1 mm 2 m/s 736 mmHg 89%
    06:00 -1°C° 0.2 mm 3 m/s 736 mmHg 88%
    07:00 -1°C° 0.2 mm 3 m/s 736 mmHg 86%
    08:00 -1°C° 0.2 mm 4 m/s 736 mmHg 84%
    09:00 -1°C° 0.1 mm 4 m/s 736 mmHg 77%
    10:00 0°C° 0.1 mm 4 m/s 737 mmHg 70%
    11:00 0°C° 0.1 mm 4 m/s 737 mmHg 63%
    12:00 0°C° 0 mm 4 m/s 737 mmHg 61%
    13:00 0°C° 0 mm 4 m/s 737 mmHg 60%
    14:00 0°C° 0 mm 4 m/s 737 mmHg 58%
    15:00 +1°C° 0 mm 3 m/s 738 mmHg 59%
    16:00 +1°C° 0 mm 3 m/s 738 mmHg 60%
    17:00 +1°C° 0 mm 2 m/s 738 mmHg 60%
    18:00 -1°C° 0 mm 2 m/s 738 mmHg 65%
    19:00 -2°C° 0 mm 2 m/s 739 mmHg 70%
    20:00 -1°C° 0 mm 1 m/s 739 mmHg 74%
    21:00 -1°C° 0 mm 1 m/s 739 mmHg 75%
    22:00 -2°C° 0 mm 1 m/s 739 mmHg 76%
    23:00 -2°C° 0 mm 1 m/s 739 mmHg 76%

    Poimâine, 27 Martie, Miercuri

    Timp Temperatura Precipitaţii Vânt Presiune Umiditate
    00:00 -2°C° 0 mm 1 m/s 740 mmHg 78%
    01:00 -2°C° 0 mm 1 m/s 740 mmHg 80%
    02:00 -2°C° 0 mm 1 m/s 740 mmHg 82%
    03:00 -5°C° 0 mm 2 m/s 740 mmHg 83%
    04:00 -5°C° 0 mm 2 m/s 741 mmHg 84%
    05:00 -5°C° 0 mm 2 m/s 741 mmHg 84%
    06:00 -5°C° 0 mm 3 m/s 742 mmHg 81%
    07:00 -4°C° 0 mm 3 m/s 742 mmHg 77%
    08:00 -3°C° 0 mm 4 m/s 743 mmHg 74%
    09:00 -2°C° 0.1 mm 4 m/s 743 mmHg 68%
    10:00 -2°C° 0.1 mm 4 m/s 744 mmHg 63%
    11:00 -1°C° 0.1 mm 4 m/s 744 mmHg 57%
    12:00 -1°C° 0 mm 4 m/s 745 mmHg 57%
    13:00 -1°C° 0 mm 4 m/s 745 mmHg 57%
    14:00 -1°C° 0 mm 4 m/s 746 mmHg 56%
    15:00 -1°C° 0 mm 4 m/s 746 mmHg 57%
    16:00 -1°C° 0 mm 4 m/s 747 mmHg 58%
    17:00 -1°C° 0 mm 4 m/s 747 mmHg 59%
    18:00 -2°C° 0 mm 4 m/s 748 mmHg 64%
    19:00 -2°C° 0 mm 3 m/s 748 mmHg 68%
    20:00 -2°C° 0 mm 2 m/s 749 mmHg 73%
    21:00 -4°C° 0 mm 3 m/s 749 mmHg 76%
    22:00 -4°C° 0 mm 3 m/s 750 mmHg 79%
    23:00 -5°C° 0 mm 3 m/s 750 mmHg 81%

    28 Martie, Joi

    Timp Temperatura Precipitaţii Vânt Presiune Umiditate
    00:00 -5°C° 0 mm 3 m/s 750 mmHg 82%
    01:00 -5°C° 0 mm 3 m/s 750 mmHg 83%
    02:00 -5°C° 0 mm 3 m/s 751 mmHg 84%
    03:00 -5°C° 0 mm 3 m/s 751 mmHg 84%
    04:00 -5°C° 0 mm 3 m/s 752 mmHg 85%
    05:00 -6°C° 0 mm 3 m/s 752 mmHg 85%
    06:00 -5°C° 0 mm 3 m/s 752 mmHg 81%
    07:00 -4°C° 0 mm 3 m/s 753 mmHg 78%
    08:00 -4°C° 0 mm 3 m/s 753 mmHg 74%
    09:00 -2°C° 0 mm 3 m/s 753 mmHg 66%
    10:00 0°C° 0 mm 3 m/s 753 mmHg 59%
    11:00 +1°C° 0 mm 3 m/s 754 mmHg 52%
    12:00 +2°C° 0 mm 3 m/s 753 mmHg 47%
    13:00 +2°C° 0 mm 3 m/s 753 mmHg 43%
    14:00 +3°C° 0 mm 3 m/s 753 mmHg 38%
    15:00 +3°C° 0 mm 3 m/s 753 mmHg 41%
    16:00 +3°C° 0 mm 2 m/s 753 mmHg 44%
    17:00 +3°C° 0 mm 2 m/s 752 mmHg 47%
    18:00 +2°C° 0 mm 2 m/s 752 mmHg 54%
    19:00 +1°C° 0 mm 2 m/s 752 mmHg 61%
    20:00 0°C° 0 mm 3 m/s 752 mmHg 68%
    21:00 0°C° 0 mm 3 m/s 751 mmHg 71%
    22:00 0°C° 0 mm 3 m/s 751 mmHg 73%
    23:00 -1°C° 0 mm 4 m/s 750 mmHg 76%

    29 Martie, Vineri

    Timp Temperatura Precipitaţii Vânt Presiune Umiditate
    00:00 0°C° 0.1 mm 4 m/s 749 mmHg 77%
    01:00 0°C° 0.1 mm 5 m/s 749 mmHg 77%
    02:00 0°C° 0.1 mm 5 m/s 748 mmHg 78%
    03:00 0°C° 0.2 mm 5 m/s 747 mmHg 80%
    04:00 +1°C° 0.2 mm 6 m/s 747 mmHg 82%
    05:00 +1°C° 0.2 mm 6 m/s 747 mmHg 84%
    06:00 +1°C° 0.1 mm 6 m/s 747 mmHg 80%
    07:00 +1°C° 0.1 mm 6 m/s 747 mmHg 76%
    08:00 +1°C° 0.1 mm 6 m/s 748 mmHg 72%
    09:00 +2°C° 0 mm 6 m/s 748 mmHg 68%
    10:00 +2°C° 0 mm 6 m/s 748 mmHg 63%
    11:00 +3°C° 0 mm 6 m/s 749 mmHg 58%
    12:00 +5°C° 0 mm 5 m/s 749 mmHg 54%
    13:00 +6°C° 0 mm 5 m/s 749 mmHg 51%
    14:00 +6°C° 0 mm 5 m/s 749 mmHg 47%
    15:00 +6°C° 0 mm 4 m/s 749 mmHg 50%
    16:00 +7°C° 0 mm 3 m/s 748 mmHg 54%
    17:00 +6°C° 0 mm 2 m/s 748 mmHg 57%
    18:00 +5°C° 0 mm 2 m/s 748 mmHg 62%
    19:00 +4°C° 0 mm 2 m/s 748 mmHg 68%
    20:00 +3°C° 0 mm 2 m/s 748 mmHg 74%
    21:00 +3°C° 0 mm 2 m/s 748 mmHg 75%
    22:00 +2°C° 0 mm 2 m/s 748 mmHg 76%
    23:00 +2°C° 0 mm 2 m/s 747 mmHg 77%

    30 Martie, Sâmbătă

    Timp Temperatura Precipitaţii Vânt Presiune Umiditate
    00:00 +2°C° 0 mm 3 m/s 747 mmHg 81%
    01:00 +2°C° 0 mm 3 m/s 746 mmHg 84%
    02:00 +2°C° 0 mm 3 m/s 746 mmHg 87%
    03:00 +2°C° 0 mm 3 m/s 745 mmHg 90%
    04:00 +3°C° 0 mm 4 m/s 745 mmHg 93%
    05:00 +3°C° 0 mm 4 m/s 745 mmHg 96%
    06:00 +4°C° 0 mm 4 m/s 745 mmHg 94%
    07:00 +4°C° 0 mm 4 m/s 744 mmHg 92%
    08:00 +3°C° 0 mm 5 m/s 744 mmHg 90%
    09:00 +4°C° 0 mm 4 m/s 744 mmHg 88%
    10:00 +5°C° 0 mm 4 m/s 745 mmHg 85%
    11:00 +5°C° 0 mm 4 m/s 745 mmHg 83%
    12:00 +5°C° 0 mm 4 m/s 745 mmHg 80%
    13:00 +6°C° 0 mm 4 m/s 744 mmHg 78%
    14:00 +6°C° 0 mm 4 m/s 744 mmHg 76%
    15:00 +7°C° 0 mm 4 m/s 744 mmHg 76%
    16:00 +8°C° 0 mm 3 m/s 744 mmHg 76%
    17:00 +8°C° 0 mm 3 m/s 744 mmHg 76%
    18:00 +7°C° 0 mm 3 m/s 744 mmHg 81%
    19:00 +5°C° 0 mm 2 m/s 744 mmHg 86%
    20:00 +4°C° 0 mm 2 m/s 743 mmHg 91%
    21:00 +4°C° 0 mm 2 m/s 743 mmHg 92%
    22:00 +3°C° 0 mm 3 m/s 743 mmHg 92%
    23:00 +3°C° 0 mm 3 m/s 742 mmHg 92%
    Arată mai mult